Time,TemperatureF,DewpointF,PressureIn,WindDirection,WindDirectionDegrees,WindSpeedMPH,WindSpeedGustMPH,Humidity,HourlyPrecipIn,Conditions,Clouds,dailyrainin,SoftwareType,DateUTC
2013-06-30 00:01:00,74.8,64.0,29.76,ENE,71,0.0,0.0,69,0.00,,,0.00,VWS V14.00,2013-06-30 04:01:00,
2013-06-30 00:02:00,74.8,64.0,29.76,ENE,70,0.0,0.0,69,0.00,,,0.00,VWS V14.00,2013-06-30 04:02:00,
2013-06-30 00:07:00,75.0,64.2,29.76,ENE,71,0.0,0.0,69,0.00,,,0.00,VWS V14.00,2013-06-30 04:07:00,
2013-06-30 00:12:00,75.2,64.3,29.79,ENE,70,0.0,0.0,69,0.00,,,0.00,VWS V14.00,2013-06-30 04:12:00,
2013-06-30 00:17:00,75.2,64.3,29.79,ENE,71,0.0,0.0,69,0.00,,,0.00,VWS V14.00,2013-06-30 04:17:00,
2013-06-30 00:22:00,75.2,64.3,29.79,ENE,70,0.0,0.0,69,0.00,,,0.00,VWS V14.00,2013-06-30 04:22:00,
2013-06-30 00:27:00,75.4,64.5,29.76,ENE,70,0.0,0.0,69,0.00,,,0.00,VWS V14.00,2013-06-30 04:27:00,
2013-06-30 00:32:00,75.2,64.8,29.76,ENE,71,0.0,0.0,70,0.00,,,0.00,VWS V14.00,2013-06-30 04:32:00,
2013-06-30 00:37:00,75.2,64.8,29.76,ENE,70,0.0,0.0,70,0.00,,,0.00,VWS V14.00,2013-06-30 04:37:00,
2013-06-30 00:42:00,75.2,65.2,29.76,ESE,106,0.0,0.0,71,0.00,,,0.00,VWS V14.00,2013-06-30 04:42:00,
2013-06-30 00:47:00,75.4,66.9,29.76,SSW,212,0.0,3.1,75,0.00,,,0.00,VWS V14.00,2013-06-30 04:47:00,
2013-06-30 00:52:00,75.4,67.3,29.76,SW,218,0.0,0.0,76,0.00,,,0.00,VWS V14.00,2013-06-30 04:52:00,
2013-06-30 00:57:00,75.6,67.8,29.76,SE,134,0.0,3.1,77,0.00,,,0.00,VWS V14.00,2013-06-30 04:57:00,
2013-06-30 01:02:00,75.6,68.2,29.76,South,185,2.2,3.6,78,0.00,,,0.00,VWS V14.00,2013-06-30 05:02:00,
2013-06-30 01:08:00,75.7,68.8,29.76,SW,234,0.0,0.0,79,0.00,,,0.00,VWS V14.00,2013-06-30 05:08:00,
2013-06-30 01:13:00,75.7,68.8,29.76,SSW,213,0.0,2.7,79,0.00,,,0.00,VWS V14.00,2013-06-30 05:13:00,
2013-06-30 01:18:00,75.7,69.1,29.76,SW,236,2.7,2.7,80,0.00,,,0.00,VWS V14.00,2013-06-30 05:18:00,
2013-06-30 01:23:00,75.7,69.1,29.76,SSW,205,0.0,4.0,80,0.00,,,0.00,VWS V14.00,2013-06-30 05:23:00,
2013-06-30 01:28:00,75.7,69.1,29.76,SE,127,2.7,2.7,80,0.00,,,0.00,VWS V14.00,2013-06-30 05:28:00,
2013-06-30 01:33:00,75.6,69.0,29.76,West,269,2.7,3.1,80,0.00,,,0.00,VWS V14.00,2013-06-30 05:33:00,
2013-06-30 01:38:00,75.6,69.0,29.76,SE,141,0.0,0.0,80,0.00,,,0.00,VWS V14.00,2013-06-30 05:38:00,
2013-06-30 01:43:00,75.6,69.3,29.76,SW,223,4.0,4.0,81,0.00,,,0.00,VWS V14.00,2013-06-30 05:43:00,
2013-06-30 01:48:00,75.6,69.3,29.76,SSW,208,0.0,3.6,81,0.00,,,0.00,VWS V14.00,2013-06-30 05:48:00,
2013-06-30 01:53:00,75.6,69.3,29.76,SW,225,5.4,5.4,81,0.00,,,0.00,VWS V14.00,2013-06-30 05:53:00,
2013-06-30 01:58:00,75.6,69.3,29.76,SW,224,2.7,2.7,81,0.00,,,0.00,VWS V14.00,2013-06-30 05:58:00,
2013-06-30 02:03:00,75.6,69.0,29.76,SW,222,0.0,4.9,80,0.00,,,0.00,VWS V14.00,2013-06-30 06:03:00,
2013-06-30 02:08:00,75.6,69.0,29.76,SW,217,0.0,0.0,80,0.00,,,0.00,VWS V14.00,2013-06-30 06:08:00,
2013-06-30 02:13:00,75.6,69.0,29.76,SW,232,0.0,3.1,80,0.00,,,0.00,VWS V14.00,2013-06-30 06:13:00,
2013-06-30 02:18:00,75.7,69.1,29.76,SSW,209,2.2,4.0,80,0.00,,,0.00,VWS V14.00,2013-06-30 06:18:00,
2013-06-30 02:24:00,75.7,69.1,29.76,SW,223,2.7,2.7,80,0.00,,,0.00,VWS V14.00,2013-06-30 06:24:00,
2013-06-30 02:29:00,75.7,68.8,29.76,SW,235,0.0,6.7,79,0.00,,,0.00,VWS V14.00,2013-06-30 06:29:00,
2013-06-30 02:34:00,75.9,68.9,29.76,SW,225,2.2,4.0,79,0.00,,,0.00,VWS V14.00,2013-06-30 06:34:00,
2013-06-30 02:39:00,75.9,68.9,29.76,SW,221,5.8,6.3,79,0.00,,,0.00,VWS V14.00,2013-06-30 06:39:00,
2013-06-30 02:44:00,75.9,68.9,29.73,SW,224,5.8,6.3,79,0.00,,,0.00,VWS V14.00,2013-06-30 06:44:00,
2013-06-30 02:49:00,75.7,68.8,29.73,SSW,206,2.2,3.6,79,0.00,,,0.00,VWS V14.00,2013-06-30 06:49:00,
2013-06-30 02:54:00,75.7,68.8,29.73,South,184,3.6,3.6,79,0.00,,,0.00,VWS V14.00,2013-06-30 06:54:00,
2013-06-30 02:59:00,75.6,69.0,29.73,SW,228,3.1,4.0,80,0.00,,,0.00,VWS V14.00,2013-06-30 06:59:00,
2013-06-30 03:04:00,75.6,69.0,29.73,SSW,204,4.9,4.9,80,0.00,,,0.00,VWS V14.00,2013-06-30 07:04:00,
2013-06-30 03:09:00,75.6,69.0,29.73,SSW,208,4.9,6.3,80,0.00,,,0.00,VWS V14.00,2013-06-30 07:09:00,
2013-06-30 03:14:00,75.6,69.0,29.73,SSW,192,5.8,5.8,80,0.00,,,0.00,VWS V14.00,2013-06-30 07:14:00,
2013-06-30 03:19:00,75.4,68.8,29.73,WSW,243,3.6,4.0,80,0.00,,,0.00,VWS V14.00,2013-06-30 07:19:00,
2013-06-30 03:24:00,75.4,68.8,29.73,SSW,207,2.7,3.6,80,0.00,,,0.00,VWS V14.00,2013-06-30 07:24:00,
2013-06-30 03:29:00,75.4,69.2,29.73,SW,235,2.7,4.9,81,0.00,,,0.00,VWS V14.00,2013-06-30 07:29:00,
2013-06-30 03:34:00,75.4,69.2,29.73,SSW,212,0.0,4.0,81,0.00,,,0.00,VWS V14.00,2013-06-30 07:34:00,
2013-06-30 03:39:00,75.4,69.2,29.73,SSE,158,5.8,5.8,81,0.00,,,0.00,VWS V14.00,2013-06-30 07:39:00,
2013-06-30 03:45:00,75.4,69.2,29.73,South,189,0.0,3.6,81,0.00,,,0.00,VWS V14.00,2013-06-30 07:45:00,
2013-06-30 03:50:00,75.4,69.2,29.73,SW,218,0.0,2.7,81,0.00,,,0.00,VWS V14.00,2013-06-30 07:50:00,
2013-06-30 03:55:00,75.4,68.8,29.73,WSW,251,2.7,3.6,80,0.00,,,0.00,VWS V14.00,2013-06-30 07:55:00,
2013-06-30 04:00:00,75.4,68.8,29.73,SW,214,3.1,3.1,80,0.00,,,0.00,VWS V14.00,2013-06-30 08:00:00,
2013-06-30 04:05:00,75.4,68.8,29.73,SW,219,0.0,5.4,80,0.00,,,0.00,VWS V14.00,2013-06-30 08:05:00,
2013-06-30 04:10:00,75.2,69.0,29.73,SE,139,4.9,5.4,81,0.00,,,0.00,VWS V14.00,2013-06-30 08:10:00,
2013-06-30 04:15:00,75.2,69.0,29.73,SW,227,0.0,3.1,81,0.00,,,0.00,VWS V14.00,2013-06-30 08:15:00,
2013-06-30 04:20:00,75.0,69.2,29.73,South,172,0.0,3.1,82,0.00,,,0.00,VWS V14.00,2013-06-30 08:20:00,
2013-06-30 04:25:00,75.0,69.2,29.73,SW,222,3.6,5.8,82,0.00,,,0.00,VWS V14.00,2013-06-30 08:25:00,
2013-06-30 04:30:00,75.0,69.5,29.73,SSW,206,4.0,4.0,83,0.00,,,0.00,VWS V14.00,2013-06-30 08:30:00,
2013-06-30 04:35:00,74.8,69.3,29.73,South,184,2.7,6.3,83,0.00,,,0.00,VWS V14.00,2013-06-30 08:35:00,
2013-06-30 04:40:00,74.8,69.3,29.73,SSW,206,3.1,4.0,83,0.00,,,0.00,VWS V14.00,2013-06-30 08:40:00,
2013-06-30 04:45:00,74.7,69.2,29.73,SW,219,0.0,2.2,83,0.00,,,0.00,VWS V14.00,2013-06-30 08:45:00,
2013-06-30 04:50:00,74.5,69.3,29.73,South,173,3.1,3.6,84,0.00,,,0.00,VWS V14.00,2013-06-30 08:50:00,
2013-06-30 04:55:00,74.3,69.2,29.73,West,262,2.7,2.7,84,0.00,,,0.00,VWS V14.00,2013-06-30 08:55:00,
2013-06-30 05:01:00,74.3,69.5,29.76,SW,235,2.2,2.7,85,0.00,,,0.00,VWS V14.00,2013-06-30 09:01:00,
2013-06-30 05:06:00,74.5,69.7,29.76,SW,228,2.7,3.1,85,0.00,,,0.00,VWS V14.00,2013-06-30 09:06:00,
2013-06-30 05:11:00,74.3,69.5,29.76,SW,225,2.7,2.7,85,0.00,,,0.00,VWS V14.00,2013-06-30 09:11:00,
2013-06-30 05:16:00,74.3,69.8,29.76,SW,220,2.7,2.7,86,0.00,,,0.00,VWS V14.00,2013-06-30 09:16:00,
2013-06-30 05:21:00,74.3,69.8,29.76,SSW,211,3.1,3.1,86,0.00,,,0.00,VWS V14.00,2013-06-30 09:21:00,
2013-06-30 05:26:00,74.3,69.8,29.76,SSW,213,2.2,4.0,86,0.00,,,0.00,VWS V14.00,2013-06-30 09:26:00,
2013-06-30 05:31:00,74.3,70.2,29.76,WNW,285,0.0,0.0,87,0.00,,,0.00,VWS V14.00,2013-06-30 09:31:00,
2013-06-30 05:36:00,74.1,70.0,29.76,SSW,206,0.0,0.0,87,0.00,,,0.00,VWS V14.00,2013-06-30 09:36:00,
2013-06-30 05:41:00,74.1,70.0,29.76,SW,215,0.0,0.0,87,0.00,,,0.00,VWS V14.00,2013-06-30 09:41:00,
2013-06-30 05:46:00,73.9,69.8,29.76,SSW,211,0.0,0.0,87,0.00,,,0.00,VWS V14.00,2013-06-30 09:46:00,
2013-06-30 05:51:00,73.9,69.8,29.76,SSW,207,0.0,0.0,87,0.00,,,0.00,VWS V14.00,2013-06-30 09:51:00,
2013-06-30 05:56:00,73.8,69.7,29.76,SSW,200,0.0,0.0,87,0.00,,,0.00,VWS V14.00,2013-06-30 09:56:00,
2013-06-30 06:01:00,73.8,69.7,29.76,SW,217,0.0,0.0,87,0.00,,,0.00,VWS V14.00,2013-06-30 10:01:00,
2013-06-30 06:06:00,73.9,69.8,29.76,SW,222,0.0,0.0,87,0.00,,,0.00,VWS V14.00,2013-06-30 10:06:00,
2013-06-30 06:12:00,73.9,70.2,29.76,WSW,250,0.0,0.0,88,0.00,,,0.00,VWS V14.00,2013-06-30 10:12:00,
2013-06-30 06:17:00,73.9,70.2,29.76,SW,232,0.0,2.2,88,0.00,,,0.00,VWS V14.00,2013-06-30 10:17:00,
2013-06-30 06:22:00,73.9,70.2,29.76,SW,227,0.0,0.0,88,0.00,,,0.00,VWS V14.00,2013-06-30 10:22:00,
2013-06-30 06:27:00,73.9,70.2,29.76,WSW,244,0.0,0.0,88,0.00,,,0.00,VWS V14.00,2013-06-30 10:27:00,
2013-06-30 06:32:00,73.9,70.2,29.76,WSW,237,0.0,0.0,88,0.00,,,0.00,VWS V14.00,2013-06-30 10:32:00,
2013-06-30 06:37:00,74.1,70.3,29.76,SW,223,0.0,0.0,88,0.00,,,0.00,VWS V14.00,2013-06-30 10:37:00,
2013-06-30 06:42:00,74.1,70.3,29.76,SW,226,0.0,0.0,88,0.00,,,0.00,VWS V14.00,2013-06-30 10:42:00,
2013-06-30 06:47:00,74.3,70.5,29.76,SSW,211,0.0,0.0,88,0.00,,,0.00,VWS V14.00,2013-06-30 10:47:00,
2013-06-30 06:52:00,74.3,70.5,29.76,SSW,211,0.0,0.0,88,0.00,,,0.00,VWS V14.00,2013-06-30 10:52:00,
2013-06-30 06:57:00,74.3,70.2,29.76,SW,219,0.0,0.0,87,0.00,,,0.00,VWS V14.00,2013-06-30 10:57:00,
2013-06-30 07:02:00,74.3,70.2,29.76,WSW,253,0.0,2.7,87,0.00,,,0.00,VWS V14.00,2013-06-30 11:02:00,
2013-06-30 07:07:00,74.3,70.2,29.76,WSW,253,0.0,0.0,87,0.00,,,0.00,VWS V14.00,2013-06-30 11:07:00,
2013-06-30 07:12:00,74.3,70.2,29.79,WSW,253,0.0,0.0,87,0.00,,,0.00,VWS V14.00,2013-06-30 11:12:00,
2013-06-30 07:17:00,74.3,69.8,29.79,SW,221,0.0,0.0,86,0.00,,,0.00,VWS V14.00,2013-06-30 11:17:00,
2013-06-30 07:23:00,74.5,70.0,29.79,SW,235,0.0,4.5,86,0.00,,,0.00,VWS V14.00,2013-06-30 11:23:00,
2013-06-30 07:28:00,74.5,70.0,29.79,SSW,210,0.0,0.0,86,0.00,,,0.00,VWS V14.00,2013-06-30 11:28:00,
2013-06-30 07:33:00,74.7,69.9,29.79,West,267,0.0,2.7,85,0.00,,,0.00,VWS V14.00,2013-06-30 11:33:00,
2013-06-30 07:38:00,75.0,69.9,29.79,SSW,200,0.0,0.0,84,0.00,,,0.00,VWS V14.00,2013-06-30 11:38:00,
2013-06-30 07:43:00,75.2,70.0,29.79,WSW,237,2.2,2.7,84,0.00,,,0.00,VWS V14.00,2013-06-30 11:43:00,
2013-06-30 07:48:00,75.6,69.7,29.79,SE,132,0.0,3.6,82,0.00,,,0.00,VWS V14.00,2013-06-30 11:48:00,
2013-06-30 07:53:00,75.7,69.1,29.79,SW,215,0.0,3.1,80,0.00,,,0.00,VWS V14.00,2013-06-30 11:53:00,
2013-06-30 07:58:00,75.9,68.9,29.79,SE,133,0.0,3.1,79,0.00,,,0.00,VWS V14.00,2013-06-30 11:58:00,
2013-06-30 08:03:00,76.3,68.9,29.79,WSW,238,2.2,3.6,78,0.00,,,0.00,VWS V14.00,2013-06-30 12:03:00,
2013-06-30 08:08:00,76.5,68.3,29.79,ESE,103,0.0,0.0,76,0.00,,,0.00,VWS V14.00,2013-06-30 12:08:00,
2013-06-30 08:13:00,76.8,68.3,29.79,SE,133,0.0,4.0,75,0.00,,,0.00,VWS V14.00,2013-06-30 12:13:00,
2013-06-30 08:18:00,77.0,67.7,29.79,WSW,242,0.0,2.7,73,0.00,,,0.00,VWS V14.00,2013-06-30 12:18:00,
2013-06-30 08:23:00,77.7,68.8,29.79,WSW,239,0.0,0.0,74,0.00,,,0.00,VWS V14.00,2013-06-30 12:23:00,
2013-06-30 08:29:00,78.1,67.5,29.79,WSW,245,0.0,2.7,70,0.00,,,0.00,VWS V14.00,2013-06-30 12:29:00,
2013-06-30 08:34:00,78.1,66.7,29.79,SW,233,0.0,0.0,68,0.00,,,0.00,VWS V14.00,2013-06-30 12:34:00,
2013-06-30 08:39:00,77.9,65.6,29.79,SW,214,4.0,7.2,66,0.00,,,0.00,VWS V14.00,2013-06-30 12:39:00,
2013-06-30 08:44:00,78.1,65.8,29.79,SW,222,0.0,0.0,66,0.00,,,0.00,VWS V14.00,2013-06-30 12:44:00,
2013-06-30 08:49:00,77.7,65.5,29.79,SSW,209,2.7,4.0,66,0.00,,,0.00,VWS V14.00,2013-06-30 12:49:00,
2013-06-30 08:54:00,77.7,65.5,29.79,South,185,2.7,3.1,66,0.00,,,0.00,VWS V14.00,2013-06-30 12:54:00,
2013-06-30 08:59:00,78.1,65.8,29.79,SW,223,0.0,5.8,66,0.00,,,0.00,VWS V14.00,2013-06-30 12:59:00,
2013-06-30 09:04:00,78.3,65.5,29.79,SSW,202,2.7,2.7,65,0.00,,,0.00,VWS V14.00,2013-06-30 13:04:00,
2013-06-30 09:09:00,78.3,65.1,29.79,SW,214,2.2,5.4,64,0.00,,,0.00,VWS V14.00,2013-06-30 13:09:00,
2013-06-30 09:14:00,78.6,65.4,29.79,SSE,159,0.0,0.0,64,0.00,,,0.00,VWS V14.00,2013-06-30 13:14:00,
2013-06-30 09:19:00,79.0,65.8,29.79,SW,215,0.0,2.7,64,0.00,,,0.00,VWS V14.00,2013-06-30 13:19:00,
2013-06-30 09:24:00,79.2,64.1,29.79,SW,219,0.0,4.9,60,0.00,,,0.00,VWS V14.00,2013-06-30 13:24:00,
2013-06-30 09:29:00,79.7,64.1,29.79,SW,222,5.8,7.2,59,0.00,,,0.00,VWS V14.00,2013-06-30 13:29:00,
2013-06-30 09:34:00,79.9,63.3,29.79,SW,236,0.0,4.0,57,0.00,,,0.00,VWS V14.00,2013-06-30 13:34:00,
2013-06-30 09:40:00,80.6,62.4,29.79,SW,225,2.7,4.0,54,0.00,,,0.00,VWS V14.00,2013-06-30 13:40:00,
2013-06-30 09:45:00,81.1,64.0,29.79,SSW,211,0.0,2.2,56,0.00,,,0.00,VWS V14.00,2013-06-30 13:45:00,
2013-06-30 09:50:00,81.5,62.7,29.79,WSW,246,3.1,3.1,53,0.00,,,0.00,VWS V14.00,2013-06-30 13:50:00,
2013-06-30 09:55:00,81.5,62.7,29.79,SSE,165,0.0,4.9,53,0.00,,,0.00,VWS V14.00,2013-06-30 13:55:00,
2013-06-30 10:00:00,81.7,60.7,29.79,SW,214,2.2,4.9,49,0.00,,,0.00,VWS V14.00,2013-06-30 14:00:00,
2013-06-30 10:05:00,81.3,62.6,29.79,SW,223,4.0,4.0,53,0.00,,,0.00,VWS V14.00,2013-06-30 14:05:00,
2013-06-30 10:10:00,81.9,63.1,29.79,SE,142,0.0,0.0,53,0.00,,,0.00,VWS V14.00,2013-06-30 14:10:00,
2013-06-30 10:15:00,82.8,62.2,29.79,SE,135,2.2,4.9,50,0.00,,,0.00,VWS V14.00,2013-06-30 14:15:00,
2013-06-30 10:20:00,83.3,61.6,29.79,SW,236,0.0,2.7,48,0.00,,,0.00,VWS V14.00,2013-06-30 14:20:00,
2013-06-30 10:25:00,81.5,59.9,29.79,WSW,243,4.0,5.8,48,0.00,,,0.00,VWS V14.00,2013-06-30 14:25:00,
2013-06-30 10:30:00,82.4,61.9,29.79,WSW,251,0.0,0.0,50,0.00,,,0.00,VWS V14.00,2013-06-30 14:30:00,
2013-06-30 10:35:00,83.3,62.7,29.79,SW,234,0.0,0.0,50,0.00,,,0.00,VWS V14.00,2013-06-30 14:35:00,
2013-06-30 10:40:00,83.5,61.2,29.79,SW,228,0.0,0.0,47,0.00,,,0.00,VWS V14.00,2013-06-30 14:40:00,
2013-06-30 10:45:00,82.9,60.7,29.79,SW,234,0.0,2.2,47,0.00,,,0.00,VWS V14.00,2013-06-30 14:45:00,
2013-06-30 10:50:00,82.9,60.7,29.79,West,262,0.0,2.2,47,0.00,,,0.00,VWS V14.00,2013-06-30 14:50:00,
2013-06-30 10:55:00,82.6,60.3,29.79,SW,220,3.1,4.0,47,0.00,,,0.00,VWS V14.00,2013-06-30 14:55:00,
2013-06-30 11:01:00,82.6,60.9,29.79,South,181,2.7,3.6,48,0.00,,,0.00,VWS V14.00,2013-06-30 15:01:00,
2013-06-30 11:06:00,82.2,60.0,29.79,SW,223,2.7,2.7,47,0.00,,,0.00,VWS V14.00,2013-06-30 15:06:00,
2013-06-30 11:11:00,82.9,61.8,29.79,SW,230,0.0,2.2,49,0.00,,,0.00,VWS V14.00,2013-06-30 15:11:00,
2013-06-30 11:16:00,84.0,62.8,29.79,SE,140,4.0,7.6,49,0.00,,,0.00,VWS V14.00,2013-06-30 15:16:00,
2013-06-30 11:21:00,84.4,60.7,29.79,SE,137,2.7,3.1,45,0.00,,,0.00,VWS V14.00,2013-06-30 15:21:00,
2013-06-30 11:26:00,84.4,59.5,29.79,West,277,8.1,8.1,43,0.00,,,0.00,VWS V14.00,2013-06-30 15:26:00,
2013-06-30 11:31:00,84.0,57.8,29.82,South,169,3.1,7.2,41,0.00,,,0.00,VWS V14.00,2013-06-30 15:31:00,
2013-06-30 11:36:00,84.0,58.5,29.82,SSW,197,3.6,4.9,42,0.00,,,0.00,VWS V14.00,2013-06-30 15:36:00,
2013-06-30 11:41:00,85.6,58.6,29.82,South,180,4.0,5.8,40,0.00,,,0.00,VWS V14.00,2013-06-30 15:41:00,
2013-06-30 11:46:00,85.8,58.7,29.79,SE,131,3.1,3.1,40,0.00,,,0.00,VWS V14.00,2013-06-30 15:46:00,
2013-06-30 11:51:00,86.9,60.4,29.79,ESE,119,2.7,2.7,41,0.00,,,0.00,VWS V14.00,2013-06-30 15:51:00,
2013-06-30 11:56:00,87.1,59.8,29.79,SW,219,0.0,0.0,40,0.00,,,0.00,VWS V14.00,2013-06-30 15:56:00,
2013-06-30 12:02:00,87.1,56.1,29.79,SE,127,0.0,0.0,35,0.00,,,0.00,VWS V14.00,2013-06-30 16:02:00,
2013-06-30 12:07:00,86.5,57.9,29.79,WSW,258,3.1,4.0,38,0.00,,,0.00,VWS V14.00,2013-06-30 16:07:00,
2013-06-30 12:12:00,86.7,58.1,29.79,SW,226,0.0,0.0,38,0.00,,,0.00,VWS V14.00,2013-06-30 16:12:00,
2013-06-30 12:17:00,87.6,59.6,29.79,WNW,289,4.5,4.5,39,0.00,,,0.00,VWS V14.00,2013-06-30 16:17:00,
2013-06-30 12:22:00,87.6,57.4,29.79,WSW,241,4.0,4.5,36,0.00,,,0.00,VWS V14.00,2013-06-30 16:22:00,
2013-06-30 12:27:00,87.3,56.3,29.79,SSW,198,2.2,3.6,35,0.00,,,0.00,VWS V14.00,2013-06-30 16:27:00,
2013-06-30 12:32:00,88.5,54.9,29.79,SW,219,3.1,3.1,32,0.00,,,0.00,VWS V14.00,2013-06-30 16:32:00,
2013-06-30 12:37:00,88.5,55.8,29.79,SE,127,0.0,2.2,33,0.00,,,0.00,VWS V14.00,2013-06-30 16:37:00,
2013-06-30 12:42:00,89.1,54.5,29.79,SW,236,0.0,0.0,31,0.00,,,0.00,VWS V14.00,2013-06-30 16:42:00,
2013-06-30 12:47:00,89.2,56.4,29.79,SE,142,0.0,5.4,33,0.00,,,0.00,VWS V14.00,2013-06-30 16:47:00,
2013-06-30 12:52:00,89.8,55.1,29.79,SSE,149,0.0,0.0,31,0.00,,,0.00,VWS V14.00,2013-06-30 16:52:00,
2013-06-30 12:57:00,90.0,56.2,29.79,SSE,159,0.0,0.0,32,0.00,,,0.00,VWS V14.00,2013-06-30 16:57:00,
2013-06-30 13:03:00,90.3,55.6,29.79,SW,234,0.0,0.0,31,0.00,,,0.00,VWS V14.00,2013-06-30 17:03:00,
2013-06-30 13:08:00,90.5,55.8,29.79,WNW,299,0.0,0.0,31,0.00,,,0.00,VWS V14.00,2013-06-30 17:08:00,
2013-06-30 13:13:00,90.1,54.5,29.76,ENE,62,3.1,4.9,30,0.00,,,0.00,VWS V14.00,2013-06-30 17:13:00,
2013-06-30 13:18:00,89.4,55.7,29.76,NW,305,3.1,3.1,32,0.00,,,0.00,VWS V14.00,2013-06-30 17:18:00,
2013-06-30 13:23:00,89.2,55.5,29.76,North,4,0.0,3.1,32,0.00,,,0.00,VWS V14.00,2013-06-30 17:23:00,
2013-06-30 13:28:00,88.7,55.1,29.76,North,0,3.6,3.6,32,0.00,,,0.00,VWS V14.00,2013-06-30 17:28:00,
2013-06-30 13:33:00,88.5,55.8,29.76,North,357,0.0,0.0,33,0.00,,,0.00,VWS V14.00,2013-06-30 17:33:00,
2013-06-30 13:38:00,88.3,54.8,29.76,North,8,2.7,3.1,32,0.00,,,0.00,VWS V14.00,2013-06-30 17:38:00,
2013-06-30 13:43:00,87.6,55.0,29.76,North,0,0.0,3.1,33,0.00,,,0.00,VWS V14.00,2013-06-30 17:43:00,
2013-06-30 13:48:00,87.6,55.0,29.76,NNE,14,0.0,0.0,33,0.00,,,0.00,VWS V14.00,2013-06-30 17:48:00,
2013-06-30 13:53:00,86.9,54.4,29.76,SW,216,2.7,3.6,33,0.00,,,0.00,VWS V14.00,2013-06-30 17:53:00,
2013-06-30 13:58:00,87.6,59.6,29.76,SE,143,3.1,3.1,39,0.00,,,0.00,VWS V14.00,2013-06-30 17:58:00,
2013-06-30 14:04:00,87.4,58.7,29.76,SE,138,0.0,3.1,38,0.00,,,0.00,VWS V14.00,2013-06-30 18:04:00,
2013-06-30 14:09:00,86.9,60.4,29.76,SE,144,2.7,3.1,41,0.00,,,0.00,VWS V14.00,2013-06-30 18:09:00,
2013-06-30 14:14:00,85.8,62.0,29.76,SE,145,2.2,2.2,45,0.00,,,0.00,VWS V14.00,2013-06-30 18:14:00,
2013-06-30 14:19:00,85.3,64.6,29.76,SE,138,0.0,2.7,50,0.00,,,0.00,VWS V14.00,2013-06-30 18:19:00,
2013-06-30 14:24:00,84.7,67.3,29.76,SSE,156,0.0,0.0,56,0.00,,,0.00,VWS V14.00,2013-06-30 18:24:00,
2013-06-30 14:29:00,86.7,69.7,29.76,SE,129,0.0,2.7,57,0.00,,,0.00,VWS V14.00,2013-06-30 18:29:00,
2013-06-30 14:34:00,88.5,65.1,29.76,SSW,193,0.0,3.1,46,0.00,,,0.00,VWS V14.00,2013-06-30 18:34:00,
2013-06-30 14:39:00,88.2,64.2,29.76,ESE,123,2.7,4.9,45,0.00,,,0.00,VWS V14.00,2013-06-30 18:39:00,
2013-06-30 14:44:00,88.5,61.8,29.76,SE,133,0.0,3.1,41,0.00,,,0.00,VWS V14.00,2013-06-30 18:44:00,
2013-06-30 14:49:00,88.7,62.0,29.76,SSE,149,2.7,2.7,41,0.00,,,0.00,VWS V14.00,2013-06-30 18:49:00,
2013-06-30 14:54:00,89.1,60.9,29.76,SE,137,3.1,4.0,39,0.00,,,0.00,VWS V14.00,2013-06-30 18:54:00,
2013-06-30 14:59:00,89.6,59.9,29.76,South,180,2.7,4.0,37,0.00,,,0.00,VWS V14.00,2013-06-30 18:59:00,
2013-06-30 15:05:00,90.0,60.2,29.76,SE,143,0.0,3.1,37,0.00,,,0.00,VWS V14.00,2013-06-30 19:05:00,
2013-06-30 15:10:00,90.3,58.2,29.76,SE,131,3.6,4.0,34,0.00,,,0.00,VWS V14.00,2013-06-30 19:10:00,
2013-06-30 15:15:00,90.5,58.3,29.73,SE,133,2.2,2.7,34,0.00,,,0.00,VWS V14.00,2013-06-30 19:15:00,
2013-06-30 15:20:00,90.0,61.0,29.73,SSW,204,0.0,0.0,38,0.00,,,0.00,VWS V14.00,2013-06-30 19:20:00,
2013-06-30 15:25:00,91.8,60.2,29.73,SE,137,0.0,4.0,35,0.00,,,0.00,VWS V14.00,2013-06-30 19:25:00,
2013-06-30 15:30:00,91.4,56.5,29.73,SE,127,2.7,3.1,31,0.00,,,0.00,VWS V14.00,2013-06-30 19:30:00,
2013-06-30 15:35:00,92.7,56.7,29.73,SE,141,4.0,4.0,30,0.00,,,0.00,VWS V14.00,2013-06-30 19:35:00,
2013-06-30 15:40:00,92.1,55.3,29.73,ESE,115,0.0,0.0,29,0.00,,,0.00,VWS V14.00,2013-06-30 19:40:00,
2013-06-30 15:45:00,90.5,56.6,29.76,SSE,150,0.0,3.1,32,0.00,,,0.00,VWS V14.00,2013-06-30 19:45:00,
2013-06-30 15:50:00,88.2,56.3,29.76,SE,138,2.7,3.6,34,0.00,,,0.00,VWS V14.00,2013-06-30 19:50:00,
2013-06-30 15:55:00,87.4,58.7,29.76,SE,139,0.0,4.9,38,0.00,,,0.00,VWS V14.00,2013-06-30 19:55:00,
2013-06-30 16:00:00,86.7,58.8,29.76,SSE,157,3.1,3.1,39,0.00,,,0.00,VWS V14.00,2013-06-30 20:00:00,
2013-06-30 16:05:00,85.8,59.4,29.76,SSE,155,0.0,0.0,41,0.00,,,0.00,VWS V14.00,2013-06-30 20:05:00,
2013-06-30 16:11:00,85.1,58.8,29.76,SSE,150,0.0,3.1,41,0.00,,,0.00,VWS V14.00,2013-06-30 20:11:00,
2013-06-30 16:16:00,84.7,59.1,29.76,SSE,147,0.0,0.0,42,0.00,,,0.00,VWS V14.00,2013-06-30 20:16:00,
2013-06-30 16:21:00,84.0,60.4,29.76,East,86,2.7,5.8,45,0.00,,,0.00,VWS V14.00,2013-06-30 20:21:00,
2013-06-30 16:26:00,83.3,62.7,29.76,SE,142,2.2,4.0,50,0.00,,,0.00,VWS V14.00,2013-06-30 20:26:00,
2013-06-30 16:31:00,81.7,65.5,29.76,West,272,7.2,7.2,58,0.00,,,0.00,VWS V14.00,2013-06-30 20:31:00,
2013-06-30 16:36:00,79.5,68.0,29.76,SE,141,4.9,5.4,68,0.00,,,0.04,VWS V14.00,2013-06-30 20:36:00,
2013-06-30 16:41:00,78.4,69.9,29.76,SSW,201,4.5,7.2,75,0.00,,,0.04,VWS V14.00,2013-06-30 20:41:00,
2013-06-30 16:46:00,77.9,70.9,29.79,SW,224,4.0,5.4,79,0.00,,,0.04,VWS V14.00,2013-06-30 20:46:00,
2013-06-30 16:51:00,76.3,66.6,29.79,SW,214,3.6,8.7,72,0.00,,,0.08,VWS V14.00,2013-06-30 20:51:00,
2013-06-30 16:56:00,74.7,65.4,29.79,SW,230,2.7,2.7,73,0.16,,,0.08,VWS V14.00,2013-06-30 20:56:00,
2013-06-30 17:01:00,73.8,65.3,29.82,NNE,22,4.0,10.1,75,0.16,,,0.08,VWS V14.00,2013-06-30 21:01:00,
2013-06-30 17:07:00,72.5,65.6,29.82,North,353,3.6,5.4,79,0.20,,,0.12,VWS V14.00,2013-06-30 21:07:00,
2013-06-30 17:12:00,72.0,65.8,29.82,North,3,11.9,11.9,81,0.20,,,0.12,VWS V14.00,2013-06-30 21:12:00,
2013-06-30 17:17:00,70.5,63.7,29.82,North,4,3.6,5.4,79,0.20,,,0.12,VWS V14.00,2013-06-30 21:17:00,
2013-06-30 17:22:00,70.0,64.6,29.82,North,4,2.7,3.6,83,0.20,,,0.20,VWS V14.00,2013-06-30 21:22:00,
2013-06-30 17:27:00,69.6,65.2,29.79,ESE,118,4.0,5.4,86,0.20,,,0.20,VWS V14.00,2013-06-30 21:27:00,
2013-06-30 17:32:00,70.0,65.9,29.79,ENE,74,3.6,3.6,87,0.16,,,0.24,VWS V14.00,2013-06-30 21:32:00,
2013-06-30 17:37:00,70.2,66.4,29.79,NNW,345,0.0,3.1,88,0.16,,,0.24,VWS V14.00,2013-06-30 21:37:00,
2013-06-30 17:42:00,70.0,66.6,29.82,North,0,0.0,0.0,89,0.16,,,0.24,VWS V14.00,2013-06-30 21:42:00,
2013-06-30 17:47:00,70.0,66.3,29.82,North,357,0.0,0.0,88,0.16,,,0.28,VWS V14.00,2013-06-30 21:47:00,
2013-06-30 17:52:00,70.5,67.1,29.82,North,357,0.0,0.0,89,0.16,,,0.28,VWS V14.00,2013-06-30 21:52:00,
2013-06-30 17:57:00,70.9,67.5,29.79,North,0,0.0,0.0,89,0.16,,,0.28,VWS V14.00,2013-06-30 21:57:00,
2013-06-30 18:02:00,71.1,67.7,29.79,North,357,0.0,0.0,89,0.16,,,0.28,VWS V14.00,2013-06-30 22:02:00,
2013-06-30 18:07:00,71.1,67.7,29.79,North,0,0.0,0.0,89,0.16,,,0.28,VWS V14.00,2013-06-30 22:07:00,
2013-06-30 18:12:00,70.7,67.3,29.79,North,357,0.0,0.0,89,0.16,,,0.28,VWS V14.00,2013-06-30 22:12:00,
2013-06-30 18:17:00,70.2,66.4,29.79,ENE,63,0.0,2.7,88,0.16,,,0.28,VWS V14.00,2013-06-30 22:17:00,
2013-06-30 18:23:00,70.0,66.3,29.79,ESE,109,2.2,3.1,88,0.16,,,0.28,VWS V14.00,2013-06-30 22:23:00,
2013-06-30 18:28:00,69.8,66.1,29.79,ESE,109,0.0,0.0,88,0.08,,,0.31,VWS V14.00,2013-06-30 22:28:00,
2013-06-30 18:33:00,69.6,66.2,29.79,ESE,109,0.0,0.0,89,0.08,,,0.31,VWS V14.00,2013-06-30 22:33:00,
2013-06-30 18:38:00,69.8,66.4,29.79,ESE,109,0.0,0.0,89,0.08,,,0.31,VWS V14.00,2013-06-30 22:38:00,
2013-06-30 18:43:00,70.0,66.6,29.79,ESE,106,0.0,0.0,89,0.08,,,0.31,VWS V14.00,2013-06-30 22:43:00,
2013-06-30 18:48:00,70.2,66.8,29.79,ESE,106,0.0,0.0,89,0.08,,,0.31,VWS V14.00,2013-06-30 22:48:00,
2013-06-30 18:53:00,70.0,66.6,29.79,ESE,106,0.0,0.0,89,0.08,,,0.31,VWS V14.00,2013-06-30 22:53:00,
2013-06-30 18:58:00,69.6,66.2,29.79,ESE,106,0.0,0.0,89,0.08,,,0.31,VWS V14.00,2013-06-30 22:58:00,
2013-06-30 19:03:00,69.8,66.4,29.79,ESE,106,0.0,0.0,89,0.08,,,0.31,VWS V14.00,2013-06-30 23:03:00,
2013-06-30 19:08:00,70.2,66.8,29.79,ESE,106,0.0,0.0,89,0.08,,,0.31,VWS V14.00,2013-06-30 23:08:00,
2013-06-30 19:13:00,70.3,67.3,29.79,ESE,106,0.0,0.0,90,0.08,,,0.31,VWS V14.00,2013-06-30 23:13:00,
2013-06-30 19:18:00,70.7,67.6,29.79,ESE,107,0.0,0.0,90,0.08,,,0.31,VWS V14.00,2013-06-30 23:18:00,
2013-06-30 19:24:00,71.1,68.0,29.79,SW,215,0.0,0.0,90,0.08,,,0.31,VWS V14.00,2013-06-30 23:24:00,
2013-06-30 19:29:00,71.2,68.2,29.79,WSW,238,0.0,2.7,90,0.08,,,0.31,VWS V14.00,2013-06-30 23:29:00,
2013-06-30 19:34:00,71.4,68.3,29.79,WSW,238,0.0,0.0,90,0.08,,,0.31,VWS V14.00,2013-06-30 23:34:00,
2013-06-30 19:39:00,71.8,68.7,29.79,SSE,162,0.0,2.7,90,0.08,,,0.31,VWS V14.00,2013-06-30 23:39:00,
2013-06-30 19:44:00,71.8,68.4,29.82,SE,145,0.0,0.0,89,0.08,,,0.31,VWS V14.00,2013-06-30 23:44:00,
2013-06-30 19:49:00,71.6,68.2,29.82,SE,131,3.1,3.1,89,0.08,,,0.31,VWS V14.00,2013-06-30 23:49:00,
2013-06-30 19:54:00,71.6,68.2,29.82,SE,124,0.0,0.0,89,0.08,,,0.31,VWS V14.00,2013-06-30 23:54:00,
2013-06-30 19:59:00,71.8,68.4,29.82,ESE,121,0.0,0.0,89,0.08,,,0.31,VWS V14.00,2013-06-30 23:59:00,
2013-06-30 20:04:00,71.8,68.4,29.82,ESE,123,0.0,0.0,89,0.08,,,0.31,VWS V14.00,2013-07-01 00:04:00,
2013-06-30 20:09:00,71.8,68.7,29.82,ESE,123,0.0,0.0,90,0.08,,,0.31,VWS V14.00,2013-07-01 00:09:00,
2013-06-30 20:14:00,71.8,68.7,29.82,ESE,123,0.0,0.0,90,0.08,,,0.31,VWS V14.00,2013-07-01 00:14:00,
2013-06-30 20:19:00,71.8,68.7,29.82,ESE,123,0.0,0.0,90,0.08,,,0.31,VWS V14.00,2013-07-01 00:19:00,
2013-06-30 20:24:00,72.0,68.9,29.82,ESE,123,0.0,0.0,90,0.08,,,0.31,VWS V14.00,2013-07-01 00:24:00,
2013-06-30 20:30:00,72.1,69.1,29.82,ESE,123,0.0,0.0,90,0.08,,,0.31,VWS V14.00,2013-07-01 00:30:00,
2013-06-30 20:35:00,72.3,69.2,29.82,ESE,123,0.0,0.0,90,0.00,,,0.31,VWS V14.00,2013-07-01 00:35:00,
2013-06-30 20:40:00,72.3,69.2,29.82,ESE,123,0.0,0.0,90,0.00,,,0.31,VWS V14.00,2013-07-01 00:40:00,
2013-06-30 20:45:00,72.5,69.4,29.82,ESE,123,0.0,0.0,90,0.00,,,0.31,VWS V14.00,2013-07-01 00:45:00,
2013-06-30 20:50:00,72.5,69.4,29.82,ESE,123,0.0,0.0,90,0.00,,,0.31,VWS V14.00,2013-07-01 00:50:00,
2013-06-30 20:55:00,72.5,69.4,29.82,ESE,123,0.0,0.0,90,0.00,,,0.31,VWS V14.00,2013-07-01 00:55:00,
2013-06-30 21:01:00,72.5,69.4,29.82,ESE,123,0.0,0.0,90,0.00,,,0.31,VWS V14.00,2013-07-01 01:01:00,
2013-06-30 21:06:00,72.5,69.4,29.82,ESE,123,0.0,0.0,90,0.00,,,0.31,VWS V14.00,2013-07-01 01:06:00,
2013-06-30 21:11:00,72.5,69.4,29.82,ESE,123,0.0,0.0,90,0.00,,,0.31,VWS V14.00,2013-07-01 01:11:00,
2013-06-30 21:16:00,72.5,69.4,29.82,ESE,123,0.0,0.0,90,0.00,,,0.31,VWS V14.00,2013-07-01 01:16:00,
2013-06-30 21:21:00,72.3,69.2,29.82,ESE,123,0.0,0.0,90,0.00,,,0.31,VWS V14.00,2013-07-01 01:21:00,
2013-06-30 21:26:00,72.3,69.2,29.82,ESE,123,0.0,0.0,90,0.00,,,0.31,VWS V14.00,2013-07-01 01:26:00,
2013-06-30 21:31:00,72.3,69.2,29.85,ESE,123,0.0,0.0,90,0.00,,,0.31,VWS V14.00,2013-07-01 01:31:00,
2013-06-30 21:36:00,72.1,69.1,29.85,ESE,123,0.0,0.0,90,0.00,,,0.31,VWS V14.00,2013-07-01 01:36:00,
2013-06-30 21:41:00,72.1,69.1,29.85,ESE,123,0.0,0.0,90,0.00,,,0.31,VWS V14.00,2013-07-01 01:41:00,
2013-06-30 21:46:00,72.1,69.1,29.85,ESE,123,0.0,0.0,90,0.00,,,0.31,VWS V14.00,2013-07-01 01:46:00,
2013-06-30 21:51:00,72.0,68.9,29.85,ESE,123,0.0,0.0,90,0.00,,,0.31,VWS V14.00,2013-07-01 01:51:00,
2013-06-30 21:56:00,72.0,68.9,29.85,ESE,123,0.0,0.0,90,0.00,,,0.31,VWS V14.00,2013-07-01 01:56:00,
2013-06-30 22:01:00,72.0,68.9,29.85,ESE,123,0.0,0.0,90,0.00,,,0.31,VWS V14.00,2013-07-01 02:01:00,
2013-06-30 22:07:00,72.0,68.9,29.85,ESE,123,0.0,0.0,90,0.00,,,0.31,VWS V14.00,2013-07-01 02:07:00,
2013-06-30 22:12:00,72.0,68.9,29.85,ESE,123,0.0,0.0,90,0.00,,,0.31,VWS V14.00,2013-07-01 02:12:00,
2013-06-30 22:17:00,72.0,68.9,29.85,ESE,123,0.0,0.0,90,0.00,,,0.31,VWS V14.00,2013-07-01 02:17:00,
2013-06-30 22:22:00,72.0,68.9,29.85,ESE,123,0.0,0.0,90,0.00,,,0.31,VWS V14.00,2013-07-01 02:22:00,
2013-06-30 22:27:00,72.0,68.9,29.85,ESE,123,0.0,0.0,90,0.00,,,0.31,VWS V14.00,2013-07-01 02:27:00,
2013-06-30 22:32:00,72.1,69.1,29.85,ESE,123,0.0,0.0,90,0.00,,,0.31,VWS V14.00,2013-07-01 02:32:00,
2013-06-30 22:37:00,72.0,68.6,29.85,ESE,123,0.0,0.0,89,0.00,,,0.31,VWS V14.00,2013-07-01 02:37:00,
2013-06-30 22:42:00,72.0,68.6,29.85,ESE,123,0.0,0.0,89,0.00,,,0.31,VWS V14.00,2013-07-01 02:42:00,
2013-06-30 22:47:00,72.0,68.6,29.85,ESE,123,0.0,0.0,89,0.00,,,0.31,VWS V14.00,2013-07-01 02:47:00,
2013-06-30 22:52:00,71.8,68.4,29.85,ESE,123,0.0,0.0,89,0.00,,,0.31,VWS V14.00,2013-07-01 02:52:00,
2013-06-30 22:57:00,72.1,68.7,29.85,ESE,123,0.0,0.0,89,0.00,,,0.31,VWS V14.00,2013-07-01 02:57:00,
2013-06-30 23:02:00,72.1,68.7,29.85,ESE,123,0.0,0.0,89,0.00,,,0.31,VWS V14.00,2013-07-01 03:02:00,
2013-06-30 23:07:00,71.8,68.4,29.85,ESE,123,0.0,0.0,89,0.00,,,0.31,VWS V14.00,2013-07-01 03:07:00,
2013-06-30 23:13:00,71.8,68.4,29.85,ESE,123,0.0,0.0,89,0.00,,,0.31,VWS V14.00,2013-07-01 03:13:00,
2013-06-30 23:18:00,71.6,68.2,29.85,ESE,123,0.0,0.0,89,0.00,,,0.31,VWS V14.00,2013-07-01 03:18:00,
2013-06-30 23:23:00,71.6,68.2,29.85,SSE,165,0.0,0.0,89,0.00,,,0.31,VWS V14.00,2013-07-01 03:23:00,
2013-06-30 23:28:00,71.8,68.4,29.85,SSE,165,0.0,0.0,89,0.00,,,0.31,VWS V14.00,2013-07-01 03:28:00,
2013-06-30 23:33:00,71.8,68.4,29.85,SSE,166,0.0,0.0,89,0.00,,,0.31,VWS V14.00,2013-07-01 03:33:00,
2013-06-30 23:38:00,72.0,68.6,29.85,SSE,166,0.0,0.0,89,0.00,,,0.31,VWS V14.00,2013-07-01 03:38:00,
2013-06-30 23:43:00,71.8,68.4,29.85,SSE,165,0.0,0.0,89,0.00,,,0.31,VWS V14.00,2013-07-01 03:43:00,
2013-06-30 23:48:00,71.8,68.4,29.85,SSE,166,0.0,0.0,89,0.00,,,0.31,VWS V14.00,2013-07-01 03:48:00,
2013-06-30 23:53:00,71.8,68.4,29.85,SSE,158,2.2,3.1,89,0.00,,,0.31,VWS V14.00,2013-07-01 03:53:00,
2013-06-30 23:58:00,71.6,67.9,29.85,SSE,164,2.2,2.7,88,0.00,,,0.31,VWS V14.00,2013-07-01 03:58:00,